Time,TemperatureF,DewpointF,PressureIn,WindDirection,WindDirectionDegrees,WindSpeedMPH,WindSpeedGustMPH,Humidity,HourlyPrecipIn,Conditions,Clouds,dailyrainin,SoftwareType,DateUTC
2013-10-08 00:21:00,48.0,44.0,30.05,NNE,29,0.0,1.0,85,0.00,,,0.00,,2013-10-08 07:21:00,
2013-10-08 00:52:00,47.0,43.0,30.05,NNE,28,0.0,1.0,87,0.00,,,0.00,,2013-10-08 07:52:00,
2013-10-08 01:21:00,47.0,43.0,30.03,NNE,28,0.0,1.0,87,0.00,,,0.00,,2013-10-08 08:21:00,
2013-10-08 01:32:00,47.0,43.0,30.03,NNE,28,0.0,1.0,87,0.00,,,0.00,,2013-10-08 08:32:00,
2013-10-08 01:52:00,47.0,43.0,30.04,NNE,27,0.0,-999.0,85,-99.99,,,-99.99,,2013-10-08 08:52:00,
2013-10-08 02:21:00,47.0,43.0,30.04,NNW,345,0.0,-999.0,86,-99.99,,,-99.99,,2013-10-08 09:21:00,
2013-10-08 02:53:00,47.0,42.0,30.05,North,11,0.0,-999.0,84,-99.99,,,-99.99,,2013-10-08 09:53:00,
2013-10-08 03:23:00,47.0,42.0,30.04,North,360,0.0,0.0,84,0.00,,,0.00,,2013-10-08 10:23:00,
2013-10-08 03:53:00,47.0,42.0,30.04,North,350,0.0,0.0,83,0.00,,,0.00,,2013-10-08 10:53:00,
2013-10-08 04:21:00,46.0,41.0,30.03,North,350,0.0,1.0,84,0.00,,,0.00,,2013-10-08 11:21:00,
2013-10-08 04:42:00,46.0,41.0,30.03,North,350,0.0,0.0,84,0.00,,,0.00,,2013-10-08 11:42:00,
2013-10-08 04:52:00,46.0,42.0,30.03,North,350,0.0,0.0,85,0.00,,,0.00,,2013-10-08 11:52:00,
2013-10-08 05:12:00,46.0,42.0,30.03,North,360,0.0,2.0,86,0.00,,,0.00,,2013-10-08 12:12:00,
2013-10-08 05:21:00,46.0,42.0,30.02,North,360,0.0,0.0,85,0.00,,,0.00,,2013-10-08 12:21:00,
2013-10-08 05:52:00,46.0,42.0,30.02,North,360,0.0,2.0,85,0.00,,,0.00,,2013-10-08 12:52:00,
2013-10-08 06:11:00,46.0,41.0,30.02,North,360,0.0,0.0,84,0.00,,,0.00,,2013-10-08 13:11:00,
2013-10-08 06:22:00,46.0,41.0,30.02,North,360,0.0,2.0,84,0.00,,,0.00,,2013-10-08 13:22:00,
2013-10-08 06:42:00,46.0,41.0,30.02,North,360,0.0,1.0,84,0.00,,,0.00,,2013-10-08 13:42:00,
2013-10-08 06:52:00,46.0,41.0,30.03,NNE,27,0.0,3.0,84,0.00,,,0.00,,2013-10-08 13:52:00,
2013-10-08 07:21:00,45.0,40.0,30.03,NNE,16,0.0,2.0,82,0.00,,,0.00,,2013-10-08 14:21:00,
2013-10-08 07:52:00,45.0,40.0,30.03,North,11,0.0,5.0,81,0.00,,,0.00,,2013-10-08 14:52:00,
2013-10-08 08:22:00,46.0,40.0,30.03,North,10,0.0,1.0,80,0.00,,,0.00,,2013-10-08 15:22:00,
2013-10-08 08:53:00,47.0,40.0,30.03,North,11,0.0,3.0,77,0.00,,,0.00,,2013-10-08 15:53:00,
2013-10-08 09:23:00,49.0,41.0,30.03,North,11,0.0,0.0,74,0.00,,,0.00,,2013-10-08 16:23:00,
2013-10-08 09:42:00,50.0,42.0,30.03,North,11,0.0,2.0,73,0.00,,,0.00,,2013-10-08 16:42:00,
2013-10-08 09:53:00,50.0,42.0,30.04,NNE,12,0.0,3.0,75,0.00,,,0.00,,2013-10-08 16:53:00,
2013-10-08 10:22:00,50.0,42.0,30.04,NNE,16,0.0,0.0,75,0.00,,,0.00,,2013-10-08 17:22:00,
2013-10-08 10:52:00,52.0,43.0,30.03,NNE,16,0.0,3.0,71,0.00,,,0.00,,2013-10-08 17:52:00,
2013-10-08 11:22:00,54.0,43.0,30.03,NNE,17,2.0,4.0,65,0.00,,,0.00,,2013-10-08 18:22:00,
2013-10-08 11:41:00,56.0,44.0,30.03,NNE,17,1.0,4.0,65,0.00,,,0.00,,2013-10-08 18:41:00,
2013-10-08 11:53:00,58.0,43.0,30.03,NNE,18,0.0,3.0,57,0.00,,,0.00,,2013-10-08 18:53:00,
2013-10-08 12:21:00,59.0,42.0,30.02,NNE,19,1.0,3.0,54,0.00,,,0.00,,2013-10-08 19:21:00,
2013-10-08 12:42:00,60.0,43.0,30.02,NNE,19,1.0,3.0,54,0.00,,,0.00,,2013-10-08 19:42:00,
2013-10-08 12:52:00,62.0,43.0,30.02,NNE,19,0.0,1.0,49,0.00,,,0.00,,2013-10-08 19:52:00,
2013-10-08 13:22:00,62.0,43.0,30.01,NNE,22,1.0,4.0,49,0.00,,,0.00,,2013-10-08 20:22:00,
2013-10-08 13:42:00,62.0,42.0,30.01,NNE,21,0.0,4.0,48,0.00,,,0.00,,2013-10-08 20:42:00,
2013-10-08 13:52:00,64.0,43.0,29.99,NNE,19,0.0,4.0,47,0.00,,,0.00,,2013-10-08 20:52:00,
2013-10-08 14:21:00,63.0,44.0,29.98,North,355,0.0,4.0,50,0.00,,,0.00,,2013-10-08 21:21:00,
2013-10-08 14:44:00,62.0,46.0,29.98,North,5,0.0,3.0,55,0.00,,,0.00,,2013-10-08 21:44:00,
2013-10-08 14:54:00,61.0,46.0,29.98,ESE,119,0.0,3.0,57,0.00,,,0.00,,2013-10-08 21:54:00,
2013-10-08 15:24:00,60.0,44.0,29.97,NNE,23,0.0,4.0,55,0.00,,,0.00,,2013-10-08 22:24:00,
2013-10-08 15:44:00,60.0,43.0,29.97,NNE,24,1.0,5.0,54,0.00,,,0.00,,2013-10-08 22:44:00,
2013-10-08 15:56:00,58.0,43.0,29.97,NNE,26,2.0,5.0,58,0.00,,,0.00,,2013-10-08 22:56:00,
2013-10-08 16:22:00,57.0,44.0,29.97,NNE,14,1.0,7.0,61,0.00,,,0.00,,2013-10-08 23:22:00,
2013-10-08 16:52:00,56.0,43.0,29.96,NNE,24,0.0,6.0,61,0.00,,,0.00,,2013-10-08 23:52:00,
2013-10-08 17:12:00,55.0,42.0,29.96,NNE,17,0.0,4.0,62,0.00,,,0.00,,2013-10-09 00:12:00,
2013-10-08 17:22:00,54.0,42.0,29.96,NNE,30,1.0,5.0,64,0.00,,,0.00,,2013-10-09 00:22:00,
2013-10-08 17:42:00,54.0,43.0,29.96,NE,38,0.0,1.0,66,0.00,,,0.00,,2013-10-09 00:42:00,
2013-10-08 17:52:00,53.0,43.0,29.94,ENE,57,0.0,5.0,68,0.00,,,0.00,,2013-10-09 00:52:00,
2013-10-08 18:21:00,52.0,42.0,29.94,NNW,336,0.0,3.0,69,0.00,,,0.00,,2013-10-09 01:21:00,
2013-10-08 18:43:00,51.0,42.0,29.94,North,355,1.0,4.0,70,0.00,,,0.00,,2013-10-09 01:43:00,
2013-10-08 18:52:00,50.0,41.0,29.94,North,355,1.0,4.0,71,0.00,,,0.00,,2013-10-09 01:52:00,
2013-10-08 19:22:00,50.0,40.0,29.94,North,11,1.0,6.0,69,0.00,,,0.00,,2013-10-09 02:22:00,
2013-10-08 19:42:00,50.0,40.0,29.94,North,10,0.0,7.0,68,0.00,,,0.00,,2013-10-09 02:42:00,
2013-10-08 19:52:00,50.0,40.0,29.93,North,5,1.0,7.0,68,0.00,,,0.00,,2013-10-09 02:52:00,
2013-10-08 20:23:00,50.0,40.0,29.93,NE,36,1.0,3.0,69,0.00,,,0.00,,2013-10-09 03:23:00,
2013-10-08 20:44:00,50.0,41.0,29.93,North,5,1.0,5.0,70,0.00,,,0.00,,2013-10-09 03:44:00,
2013-10-08 20:54:00,49.0,40.0,29.93,NNE,30,0.0,6.0,72,0.00,,,0.00,,2013-10-09 03:54:00,
2013-10-08 21:14:00,49.0,41.0,29.93,NNE,20,0.0,4.0,73,0.00,,,0.00,,2013-10-09 04:14:00,
2013-10-08 21:23:00,49.0,41.0,29.93,NNE,24,0.0,6.0,74,0.00,,,0.00,,2013-10-09 04:23:00,
2013-10-08 21:44:00,48.0,41.0,29.93,NNE,14,0.0,4.0,76,0.00,,,0.00,,2013-10-09 04:44:00,
2013-10-08 21:54:00,48.0,41.0,29.92,NNE,30,0.0,3.0,78,0.00,,,0.00,,2013-10-09 04:54:00,
2013-10-08 22:22:00,47.0,41.0,29.92,NNE,30,0.0,1.0,79,0.00,,,0.00,,2013-10-09 05:22:00,
2013-10-08 22:52:00,47.0,41.0,29.92,ENE,65,0.0,1.0,81,0.00,,,0.00,,2013-10-09 05:52:00,
2013-10-08 23:12:00,46.0,41.0,29.92,North,355,1.0,7.0,83,0.00,,,0.00,,2013-10-09 06:12:00,
2013-10-08 23:22:00,46.0,41.0,29.91,NNE,24,1.0,7.0,83,0.00,,,0.00,,2013-10-09 06:22:00,
2013-10-08 23:42:00,46.0,41.0,29.91,North,360,2.0,7.0,84,0.00,,,0.00,,2013-10-09 06:42:00,
2013-10-08 23:52:00,46.0,41.0,29.90,NNW,345,0.0,5.0,84,0.00,,,0.00,,2013-10-09 06:52:00,